Other Public Products
Issued by NWS Grand Forks, ND

Home | Current Version | Previous Version | Graphics & Text | Print | Product List | Glossary On
Versions: 1 2 3 4 5 6 7 8 9 10 11 12 13 14 15 16 17 18 19 20 21 22 23 24 25 26 27 28 29 30 31 32 33 34 35 36 37 38 39 40 41 42 43 44 45 46 47 48 49 50
000
FPUS83 KFGF 261831
OPUFGF
PRAIRIE TO PINES WEATHER ROUNDUP
NATIONAL WEATHER SERVICE EASTERN NORTH DAKOTA/GRAND FORKS ND
100 PM CDT SUN MAR 26 2017

 **SATELLITE DATA USED TO AUGMENT SKY COVER AT AUTOMATED STATIONS**
 *****  WEATHER ACROSS EASTERN NORTH DAKOTA  *****

CITY           SKY/WX    TMP DP  RH WIND       PRES   REMARKS
GRAND FORKS    CLOUDY    42  38  85 S7        29.96R
6HR MIN TEMP:  34; 6HR MAX TEMP:  42;

GRAND FORKS AF FAIR      43  38  82 SW6       29.96S
GRAND CITY NWS NOT AVBL
BUXTON         NOT AVBL
DEVILS LAKE    FAIR      46  39  76 CALM      29.94S
6HR MIN TEMP:  32; 6HR MAX TEMP:  46;

FARGO          CLOUDY    42  37  82 S7        29.95F
6HR MIN TEMP:  34; 6HR MAX TEMP:  42;

WAHPETON ARPT  CLOUDY    43  34  70 SE5       29.95S
$$

 *****  WEATHER ACROSS CENTRAL AND WESTERN NORTH DAKOTA  *****

CITY           SKY/WX    TMP DP  RH WIND       PRES   REMARKS
JAMESTOWN      CLOUDY    48  40  73 VRB5      29.92S
6HR MIN TEMP:  33; 6HR MAX TEMP:  48;

BISMARCK       FAIR      54  37  52 CALM      29.93S
6HR MIN TEMP:  36; 6HR MAX TEMP:  55;

MINOT          FAIR      56  41  57 N7        29.90S
6HR MIN TEMP:  35; 6HR MAX TEMP:  58;

MINOT AFB      FAIR      49  40  70 E6        29.89F
6HR MIN TEMP:  33; 6HR MAX TEMP:  49;

GARRISON         N/A     56  37  49 W9        29.91F
6HR MIN TEMP:  33; 6HR MAX TEMP:  56;

WILLISTON      FAIR      58  33  39 S7        29.89F
6HR MIN TEMP:  30; 6HR MAX TEMP:  58;

DICKINSON      FAIR      56  30  37 SW3       29.90F
6HR MIN TEMP:  36; 6HR MAX TEMP:  56;

HETTINGER      CLOUDY    55  35  47 W5        29.93S
6HR MIN TEMP:  40; 6HR MAX TEMP:  56;

$$

 *****  OTHER OBSERVATIONS NORTHEAST NORTH DAKOTA  *****

CITY           SKY/WX    TMP DP  RH WIND       PRES   REMARKS
WALHALLA       NOT AVBL
LANGDON        FAIR      45  37  76 NE6       29.94S
CAVALIER       FAIR      43  37  81 NW8       29.95R
GRAFTON        FAIR      43  37  81 CALM      29.97S
CANDO          NOT AVBL
FORT TOTTEN      N/A     50  39  66 N2        29.95S
ROLLA          FAIR      41  41 100 NE3       29.93F
RUGBY          NOT AVBL
 ***** THE ABOVE OBSERVATIONS ARE NON NWS ARE NOT QUALITY
        CONTROLLED AND MAY MIS-REPORT RAIN FOR SNOW...
$$

 *****  OTHER OBSERVATIONS SOUTHEAST NORTH DAKOTA *****

CITY           SKY/WX    TMP DP  RH WIND       PRES   REMARKS
COOPERSTOWN    FAIR      43  39  87 CALM      29.94S
VALLEY CITY    CLOUDY    45  45 100 NW6       29.95S
OAKES          NOT AVBL
GWINNER        CLOUDY    45  39  81 MISG      29.94R
SHEYENNE NWR     N/A     44  37  75 S6        29.95S
BUFFALO        NOT AVBL
WYNDMERE         N/A     43  37  81 SE6         N/A
 ***** THE ABOVE OBSERVATIONS ARE NON NWS ARE NOT QUALITY
       CONTROLLED AND MAY MIS-REPORT RAIN FOR SNOW...
$$

  *****  WEATHER ACROSS NORTHERN MINNESOTA  *****

CITY           SKY/WX    TMP DP  RH WIND       PRES   REMARKS
FLAG ISLAND    FAIR      34  30  86 SE8       29.95F
WARROAD        FAIR      41  36  81 SW3       29.95F
ROSEAU         FAIR      41  36  81 W6        29.96S
HALLOCK        CLOUDY    37  36  93 CALM      29.96S FOG
THF RVR FALLS  CLOUDY    40  36  86 SW8       29.96F
6HR MIN TEMP:  33; 6HR MAX TEMP:  40;

HALSTAD          N/A     40  36  83 SW3         N/A
FOSSTON        FAIR      45  34  65 CALM      29.95S
BAUDETTE       CLOUDY    44  33  65 CALM      29.95F
6HR MIN TEMP:  32; 6HR MAX TEMP:  43;

WASKISH        CLOUDY    41  34  75 NW7       29.96S
CROOKSTON      CLOUDY    41  37  87 SW9       29.97S
$$
  *****  WEATHER ACROSS CENTRAL AND WEST MINNESOTA  *****

CITY           SKY/WX    TMP DP  RH WIND       PRES   REMARKS
BEMIDJI        PTSUNNY   42  32  69 E6        29.94F
PARK RAPIDS    CLOUDY    42  30  62 VRB3      29.94F
6HR MIN TEMP:  33; 6HR MAX TEMP:  42;

WADENA         CLOUDY    43  34  70 N7        29.93F
DETROIT LAKES  FAIR      43  34  70 CALM      29.94F
MOORHEAD       FAIR      41  36  81 S5        29.96F
FERGUS FALLS   CLOUDY    43  36  75 E5        29.97F
ELBOW LAKE     CLOUDY    42  35  78 NE3       29.95F
6HR MIN TEMP:  33; 6HR MAX TEMP:  42;

MORRIS MN      CLOUDY    45  36  70 N3        29.93F
STAPLES        CLOUDY    41  32  70 N5        29.94S
WHEATON        PTSUNNY   43  36  75 CALM      29.97F
$$
  *****  WEATHER ELSEWHERE ACROSS MINNESOTA  *****

CITY           SKY/WX    TMP DP  RH WIND       PRES   REMARKS
DULUTH         CLOUDY    35  34  96 NE5       29.93F
6HR MIN TEMP:  32; 6HR MAX TEMP:  35; 6HR PCP:  0.06;

INTRNTL FALLS  FAIR      42  32  67 N3        29.95F
6HR MIN TEMP:  31; 6HR MAX TEMP:  42;

ELY            CLOUDY    34  30  86 CALM      29.95S
CLOQUET        LGT RAIN  36  32  87 CALM      29.93F
BRAINERD       CLOUDY    38  34  85 N6        29.94F
6HR MIN TEMP:  32; 6HR MAX TEMP:  37; 6HR PCP: TRACE;

HIBBING        CLOUDY    36  32  85 CALM      29.95S
6HR MIN TEMP:  31; 6HR MAX TEMP:  36;

ALEXANDRIA     CLOUDY    43  34  70 N6        29.93F
6HR MIN TEMP:  34; 6HR MAX TEMP:  43;

SAINT CLOUD    CLOUDY    40  36  86 N7        29.92F
6HR MIN TEMP:  33; 6HR MAX TEMP:  40; 6HR PCP:  0.03;

MINNEAPOLIS    CLOUDY    40  35  83 VRB5      29.91F
6HR MIN TEMP:  36; 6HR MAX TEMP:  41;

$$

  *****  WEATHER ACROSS SOUTH DAKOTA  *****

CITY           SKY/WX    TMP DP  RH WIND       PRES   REMARKS
SIOUX FALLS    CLOUDY    44  37  76 NE5       29.93S
6HR MIN TEMP:  38; 6HR MAX TEMP:  45; 6HR PCP: TRACE;

BROOKINGS      CLOUDY    38  36  92 NE5       29.93S
WATERTOWN      CLOUDY    39  36  89 E5        29.93F
6HR MIN TEMP:  34; 6HR MAX TEMP:  39;

HURON          CLOUDY    43  37  79 S3        29.95S
6HR MIN TEMP:  38; 6HR MAX TEMP:  43;

SISSETON         N/A     41  39  93 S5        29.94F
ABERDEEN       CLOUDY    42  35  76 W5        29.96R
6HR MIN TEMP:  35; 6HR MAX TEMP:  43;

MITCHELL       CLOUDY    44  38  79 NW5       29.96R
PIERRE         LGT RAIN  42  38  85 E7        29.94S
6HR MIN TEMP:  40; 6HR MAX TEMP:  41; 6HR PCP: TRACE;

MOBRIDGE       CLOUDY    44  36  73 VRB3      29.92S
RAPID CITY     LGT RAIN  43  40  89 N15       29.93S
6HR MIN TEMP:  40; 6HR MAX TEMP:  43; 6HR PCP:  0.01;

$$

  *****  SOME WEATHER IN NEARBY STATES *****

CITY           SKY/WX    TMP DP  RH WIND       PRES   REMARKS
GLASGOW MT     FAIR      51  23  33 W7        29.93S
6HR MIN TEMP:  31; 6HR MAX TEMP:  52;

GREAT FALLS MT FAIR      49  19  30 SW16G24   29.91F
6HR MIN TEMP:  30; 6HR MAX TEMP:  50;

CHEYENNE WY    CLOUDY    38  33  82 N17       29.93R
6HR MIN TEMP:  38; 6HR MAX TEMP:  40; 6HR PCP: TRACE;

SCOTTSBLUFF NE CLOUDY    54  35  48 N13       29.91S
6HR MIN TEMP:  41; 6HR MAX TEMP:  55;

OMAHA NE       CLOUDY    45  39  79 NW6       29.93F
6HR MIN TEMP:  40; 6HR MAX TEMP:  45;

DES MOINES IA  CLOUDY    46  43  89 NW9       29.88F
6HR MIN TEMP:  41; 6HR MAX TEMP:  46; 6HR PCP: TRACE;

DAVENPORT IA     N/A     55  52  89 MISG      29.82R
6HR MIN TEMP:  47; 6HR MAX TEMP:  56;

CHICAGO IL     CLOUDY    61  53  75 SW10      29.81S
6HR MIN TEMP:  48; 6HR MAX TEMP:  61; 6HR PCP:  0.29;

EAU CLAIRE WI  CLOUDY    39  36  89 NE7       29.89F
6HR MIN TEMP:  35; 6HR MAX TEMP:  39; 6HR PCP:  0.01;

LA CROSSE WI   CLOUDY    41  39  93 N7        29.88F FOG
6HR MIN TEMP:  37; 6HR MAX TEMP:  41; 6HR PCP:  0.10;

$$

  *****  SOME NATIONAL WEATHER *****

CITY           SKY/WX    TMP DP  RH WIND       PRES   REMARKS
LA GUARDIA NY  CLOUDY    41  33  73 NE14      30.45F



USA.gov is the U.S. government's official web portal to all federal, state and local government web resources and services.